Location: Risskov
(56.1972°N, 10.2480°E)
Time: 00:01:39
(UTC+00:00)

Cosmos 158 Rocket - Pass Details

Date: 05 July 2020
Orbit: 698 x 794 km, 74.0° (Epoch: 03 August)

Event Time Altitude Azimuth Distance (km) Brightness Sun altitude
Exits shadow 22:52:56 - 213° (SSW) 2,387 6.1 -10.9°
Reaches altitude 10° 22:53:31 10° 213° (SSW) 2,161 5.9 -10.9°
Maximum altitude 22:58:23 77° 300° (WNW) 729 4.0 -11.0°
Drops below altitude 10° 23:03:20 10° 27° (NNE) 2,201 7.4 -11.0°
Sets 23:05:42 0° 29° (NNE) 3,136 8.2 -11.0°
